Weather History for KTVL - August, 2014

Change the Weather History Date:

Wednesday, August 20, 2014

  Actual Average Record
Temperature  
Mean Temperature 63 °F 60 °F  
Max Temperature 81 °F 80 °F 91 °F (1988)
Min Temperature 44 °F 40 °F 28 °F (1994)
Degree Days  
Heating Degree Days 2 5  
Month to date heating degree days 46 88  
Since 1 June heating degree days 270 536  
Since 1 July heating degree days 60 226  
Cooling Degree Days 0 0  
Month to date cooling degree days 8 7  
Year to date cooling degree days 95 26  
Since 1 June cooling degree days 95 26  
Growing Degree Days 12 (Base 50)    
Moisture  
Dew Point 39 °F    
Average Humidity 48    
Maximum Humidity 76    
Minimum Humidity 19    
Precipitation  
Precipitation 0.00 in - 0.53 in (1958)
Month to date precipitation 0.98  
Year to date precipitation 13.88  
Sea Level Pressure  
Sea Level Pressure 29.92 in    
Wind  
Wind Speed 4 mph (South)    
Max Wind Speed 17 mph    
Max Gust Speed 32 mph    
Visibility 10 miles    
Events      
T = Trace of Precipitation, MM = Missing Value Source: NWS Daily Summary

Daily Weather History Graph

Daily Weather History Graph

Search for Another Location

Airport or City:

Trip Planner

Search our weather history database for the weather conditions in past years. The results will help you decide how hot, cold, wet, or windy it might be!

Date:

Astronomy

Aug. 20, 2014 Rise Set
Actual Time 6:18 AM PDT 7:47 PM PDT
Civil Twilight 5:50 AM PDT 8:15 PM PDT
Nautical Twilight 5:16 AM PDT 8:49 PM PDT
Astronomical Twilight 4:40 AM PDT 9:24 PM PDT
Moon 2:03 AM PDT (8/20) 4:35 PM PDT (8/20)
Length of Visible Light 14h 25m
Length of Day
13h 29m
Waning Crescent, 20% of the Moon is Illuminated
Aug 20
Waning Crescent
Aug 25
New
Sep 2
First Quarter
Sep 8
Full
Sep 15
Last Quarter

Hourly Weather History & Observations

Time (PDT) Temp. Windchill Dew Point Humidity Pressure Visibility Wind Dir Wind Speed Gust Speed Precip Events Conditions
12:53 AM 54.0 °F - 39.9 °F 59% 29.90 in 10.0 mi Calm Calm - N/A   Clear
1:53 AM 50.0 °F - 39.9 °F 68% 29.90 in 10.0 mi South 3.5 mph - N/A   Clear
2:53 AM 48.9 °F - 39.0 °F 69% 29.90 in 10.0 mi Calm Calm - N/A   Clear
3:53 AM 46.9 °F - 37.9 °F 71% 29.90 in 10.0 mi South 3.5 mph - N/A   Clear
4:53 AM 46.9 °F - 37.9 °F 71% 29.91 in 10.0 mi Calm Calm - N/A   Mostly Cloudy
5:53 AM 45.0 °F 43.5 °F 37.0 °F 74% 29.93 in 10.0 mi SSW 3.5 mph - N/A   Partly Cloudy
6:53 AM 45.0 °F 42.6 °F 37.0 °F 74% 29.95 in 10.0 mi South 4.6 mph - N/A   Clear
7:53 AM 52.0 °F - 37.9 °F 59% 29.95 in 10.0 mi South 4.6 mph - N/A   Clear
8:53 AM 64.0 °F - 37.9 °F 38% 29.93 in 10.0 mi Calm Calm - N/A   Clear
9:53 AM 70.0 °F - 35.1 °F 28% 29.92 in 10.0 mi Calm Calm - N/A   Clear
10:53 AM 75.9 °F - 39.0 °F 26% 29.90 in 10.0 mi NNE 6.9 mph - N/A   Clear
11:53 AM 75.9 °F - 39.9 °F 27% 29.91 in 10.0 mi NNE 10.4 mph - N/A   Clear
12:53 PM 77.0 °F - 39.0 °F 25% 29.90 in 10.0 mi NNE 10.4 mph - N/A   Clear
1:53 PM 79.0 °F - 36.0 °F 21% 29.89 in 10.0 mi NNE 10.4 mph - N/A   Partly Cloudy
2:53 PM 79.0 °F - 34.0 °F 20% 29.89 in 10.0 mi Variable 6.9 mph 19.6 mph N/A   Clear
3:53 PM 78.1 °F - 41.0 °F 27% 29.90 in 10.0 mi North - - N/A   Clear
4:53 PM 75.9 °F - 41.0 °F 29% 29.91 in 10.0 mi South 20.7 mph 32.2 mph N/A   Clear
5:53 PM 73.9 °F - 41.0 °F 30% 29.93 in 10.0 mi SSW 12.7 mph - N/A   Clear
6:53 PM 70.0 °F - 39.9 °F 33% 29.95 in 10.0 mi SSW 10.4 mph - N/A   Clear
7:53 PM 66.9 °F - 42.1 °F 40% 29.94 in 10.0 mi South 10.4 mph - N/A   Clear
8:53 PM 64.0 °F - 43.0 °F 46% 29.94 in 10.0 mi SSW 8.1 mph - N/A   Clear
9:53 PM 59.0 °F - 43.0 °F 55% 29.96 in 10.0 mi Calm Calm - N/A   Clear
10:53 PM 57.9 °F - 43.0 °F 58% 29.95 in 10.0 mi SSW 3.5 mph - N/A   Clear
11:53 PM 57.0 °F - 43.0 °F 59% 29.95 in 10.0 mi SW 4.6 mph - N/A   Clear